#timestamp,LO_Frequency,Hit,StdDev 
1601391615.5,286047000.8,N
1601391635.3,286047000.6,N
1601391655.1,286047000.6,N
1601391675.9,286046997.6,N
1601391695.7,286047000.5,N
1601391715.6,286047000.4,N
1601391735.4,286047000.9,N
1601391755.2,286047002.4,N
1601391775.1,286047000.6,N
1601391776.0,286047000.6,N
1601391795.8,286047000.2,N
1601391815.6,286047002.8,N
1601391835.5,286047004.3,N
1601391855.3,286046998.1,N
1601391875.2,286046996.9,N
1601391895.9,286046997.4,N
1601391915.7,286046994.9,N
1601391935.6,286046995.9,N
1601391955.4,286046993.7,N
1601391975.2,286046995.7,N
1601391995.1,286046998.0,N
1601391996.0,286046998.0,N
1601392015.8,286046995.5,N
1601392035.7,286046996.2,N
1601392055.5,286046997.6,N
1601392075.3,286046997.3,N
1601392095.2,286046995.3,N
1601392115.0,286046999.0,N
1601392115.9,286046999.0,N
1601392135.8,286046998.0,N
1601392155.6,286046999.6,N
1601392175.4,286047002.0,N
1601392195.3,286047002.9,N
1601392215.1,286047004.8,N
1601392235.8,286047001.3,N
1601392255.7,286047002.6,N
1601392275.5,286047002.1,N
1601392295.4,286046999.8,N
1601392315.2,286047001.6,N
1601392335.0,286047003.2,N
1601392335.9,286047003.2,N
1601392355.8,286047000.0,N
1601392375.6,286047000.2,N
1601392395.4,286047004.0,N
1601392415.3,286047001.4,N
1601392435.1,286047004.9,N
1601392455.9,286047006.5,N
1601392475.7,286047004.8,N
1601392495.5,286047009.1,N
1601392515.4,286047005.0,N
1601392535.2,286047005.8,N
1601392555.0,286047005.0,N
1601392555.9,286047005.0,N
1601392575.8,286047007.0,N
1601392595.6,286047008.7,N
1601392615.5,286047006.9,N
1601392635.3,286047008.8,N
1601392655.1,286047005.9,N
1601392675.9,286047004.0,N
1601392695.7,286047001.3,N
1601392715.6,286047003.9,N
1601392735.4,286046998.2,N
1601392755.2,286047001.5,N
1601392775.1,286046996.5,N
1601392776.0,286046996.5,N
1601392795.8,286046995.4,N
1601392815.6,286046996.1,N
1601392835.5,286046997.7,N
1601392855.3,286047000.0,N
1601392875.2,286047000.4,N
1601392895.9,286047000.0,N
1601392915.7,286047001.8,N
1601392935.6,286047003.9,N
1601392955.4,286047003.5,N
1601392975.2,286047002.0,N
1601392995.1,286046999.9,N
1601392996.0,286046999.9,N
1601393015.8,286047002.5,N
1601393035.7,286047005.0,N
1601393055.5,286047003.2,N
1601393075.3,286047001.0,N
1601393095.2,286046998.6,N
1601393115.0,286047003.3,N
1601393115.9,286047003.3,N
1601393135.7,286047007.2,N
1601393155.6,286047003.0,N
1601393175.4,286047002.9,N
1601393195.3,286047000.0,N
1601393215.1,286047002.0,N
1601393216.0,286047002.0,N
1601393235.8,286047002.1,N
1601393255.7,286047004.0,N
1601393275.5,286047003.5,N
1601393295.4,286047001.4,N
1601393315.2,286047003.0,N
1601393335.0,286047005.5,N
1601393335.9,286047005.5,N
1601393355.8,286047003.6,N
1601393375.6,286047006.0,Y
1601393395.4,286047000.0,P
1601393415.3,286046998.8,N
1601393435.1,286046996.6,N
1601393455.9,286046999.6,N
1601393475.7,286046997.0,N
1601393495.5,286046999.3,N
1601393515.4,286046999.8,N
1601393535.2,286047000.1,N
1601393555.0,286047000.2,N
1601393555.9,286047000.2,N
1601393575.8,286047002.7,N
1601393595.6,286047001.4,N
1601393615.5,286047001.5,N
1601393635.3,286047002.5,N
1601393655.1,286046998.9,N
1601393675.9,286047000.9,N
1601393695.7,286047001.2,N
1601393715.5,286047002.5,N
1601393735.4,286047000.1,N
1601393755.2,286047002.0,N
1601393775.1,286047006.0,Y
1601393776.0,286047006.0,P
1601393795.8,286047002.3,N
1601393815.6,286047002.5,N
1601393835.5,286047000.9,N
1601393855.3,286046998.5,N
1601393875.1,286047000.7,N
1601393895.9,286046997.4,N
1601393915.7,286046997.2,N
1601393935.6,286046999.0,N
1601393955.4,286046999.6,N
1601393975.2,286046997.1,N
1601393995.1,286046997.0,N
1601393996.0,286046997.0,N
1601394015.8,286046997.8,N
1601394035.7,286046993.4,N
1601394055.5,286046995.7,N
1601394075.3,286046996.1,N
1601394095.2,286046992.5,N
1601394115.9,286046991.7,N
1601394135.7,286046992.0,N
1601394155.6,286046994.7,N
1601394175.4,286046991.9,N
1601394195.3,286046991.9,N
1601394215.1,286046993.7,N
1601394216.0,286046993.7,N
1601394235.8,286046993.4,N
1601394255.7,286046991.9,N
1601394275.5,286046995.8,N
1601394295.3,286046993.9,N
1601394315.2,286046991.7,N
1601394335.0,286046994.5,N
1601394335.9,286046994.5,N
1601394355.8,286046994.8,N
1601394375.6,286046995.1,N
1601394395.4,286046993.3,N
1601394415.3,286046994.5,N
1601394435.1,286046992.3,Y
1601394455.8,286046994.9,P
1601394475.7,286046995.7,P
1601394495.5,286046997.4,P
1601394515.4,286046997.0,N
1601394535.2,286046996.9,N
1601394555.0,286046997.2,N
1601394555.9,286046997.2,N
1601394575.8,286046996.6,Y
1601394595.6,286047000.1,P
1601394615.5,286047001.4,N
1601394635.3,286047001.8,N
1601394655.1,286047000.8,N
1601394675.9,286047001.1,N
1601394695.7,286046999.0,N
1601394715.5,286046999.9,N
1601394735.4,286047002.4,N
1601394755.2,286047000.8,N
1601394775.1,286047001.7,N
1601394776.0,286047001.7,N
1601394795.8,286047001.6,N
1601394815.6,286047001.9,N
1601394835.5,286047001.8,N
1601394855.3,286047001.9,N
1601394875.1,286047003.1,N
1601394895.9,286047001.7,N
1601394915.7,286047001.4,N
1601394935.6,286047001.6,N
1601394955.4,286047001.5,N
1601394975.2,286047002.6,N
1601394995.1,286047001.7,N
1601394996.0,286047001.7,N
1601395015.8,286047002.1,N
1601395035.6,286047001.0,N
1601395055.5,286046998.2,N
1601395075.3,286046999.9,N
1601395095.2,286047001.1,N
1601395115.9,286047002.4,N
1601395135.7,286047000.4,N
1601395155.6,286046998.6,N
1601395175.4,286046996.5,Y
1601395195.3,286046995.8,P
